loading
DOY 175 | 2024-06-23T16:46:46Z

THOR ABLESTAR DEB, 224

Orbit data source: Space-Track

THOR ABLESTAR DEB, 224 is space debris in LEO originally from a launch on Thu, 29 Jun 1961 UTC launched from the Air Force Eastern Test Range (AFETR). Debris objects in space refer to the collection of defunct objects orbiting the Earth. Examples of debris include non-operational satellites, rocket bodies, and fragments generated from explosions, collisions, or faulty payload assembly.

Loading next visibility...
Loading greatness...
THOR ABLESTAR DEB details
NORAD ID224
COSPAR ID
1961-015BL
Orbit
LEO
Last TLE update1 day ago
Origin
Flag of USUSAF SSD (US)
ManufacturerUnknown
BusUnknown
MotorUnknown
MassWet unknown, Dry mass unknown
Launch date (UTC)
1961-06-29 (63 years ago)
Launch vehicleUnknown
Launch site
Air Force Eastern Test Range (AFETR)
Object type
Payload
Rocket body
Debris
Radar Cross SectionMedium (>0.1 m² and <1 m²)
Predictive object data (real-time)
Latitude-29.72219°
Longitude-62.67752°
Altitude824.805 km
Speed7.463 km/s
Apparent Right ascension21h 51m 30s
Apparent Declination-62° 23' 20"
Sunlit
Object is in daylight
Predictive observer data (real-time)
Local Sidereal Time03:55:40
Azimuth214.5° SW
Elevation-35.103°
Doppler factor1
Orbital elements
Apogee905.424 km
Perigee809.569 km
Semi-major axis7,235.633 km
Eccentricity0.0066238
Inclination66.7349°
RAAN188.3229°
Arg. of periapsis191.5106°
True anomaly285.24163°
Mean anomaly285.973°
Mean motion3.52637 °/min
BSTAR0.00036508
Period102.09 mins
Definitive object data (Epoch: 2024-06-22T11:23:36.189Z)
Latitude55.23863°
Longitude-111.75697°
Altitude854.523 km
Speed7.438 km/s
True Right ascension22h 01m 07s
True Declination55° 04' 46"
Sunlit
Object was in daylight at TLE epoch
TLE from 1 day ago
0 THOR ABLESTAR DEB
1 00224U 61015BL  24174.47472441  .00000578  00000-0  36508-3 0  9997
2 00224  66.7349 188.3229 0066238 191.5106 285.9730 14.10076352210259
Epoch: 2024-06-22T11:23Z
No data available

THOR ABLESTAR DEB Visibility forecast

Observer location: 39.9160978°, -105.1181434, 0m alt.

THOR ABLESTAR DEB is not visible in the next 10 days
Span
Click to sort rows by Start time (UTC) header in descending order
Start Az.
Max El. time (UTC)
Max El. Az.
Max El.
End time (UTC)
End Az.